[[{"header":{"parameterUnit":"m.s-1","parameterCategory":1,"la1":30.2991,"la2":30.254,"lo1":-89.0895,"lo2":-89.0444,"dy":0.0017,"dx":0.0017,"nx":28,"ny":28,"refTime":"2025-11-26T09:00:00:Z","depth":0,"parameterNumber":2,"parameterNumberName":"U-component_of_WINDS"},"data":[0,0,0,0,0,0,0,0,0,0,0,0,0,0,0,0,0,0,0,0,0,0,0,0,0,0,0,0,0,0,0,0,0,0,0,0,0,0,0,0,0,0,0,0,0,0,0,0,0,0,0,0,0,0,0,0,0,0,0.7867,0.7867,0,0.7866,0.7866,0.7866,0.7875,0.7876,0.7876,0.7876,0.7873,0.7873,0.7873,0,0,0,0,0,0,0,0,0,0,0,0,0,0.7878,0.7878,0.7867,0.7867,0.7867,0.7866,0.7866,0.7866,0.7875,0.7876,0.7876,0.7876,0.7874,0.7873,0.7873,0,0,0,0,0,0,0,0,0,0,0,0,0,0.7874,0.7878,0.7867,0.7872,0.7872,0.7866,0.7866,0.7866,0.7875,0.7876,0.7876,0.7877,0.7874,0.7873,0.7873,0.7861,0,0,0.7871,0.7871,0,0,0,0,0,0,0,0,0.7875,0.7874,0.7871,0.7871,0.7872,0.7871,0.7868,0.7864,0.7875,0.7874,0.7876,0.7877,0.7872,0.7872,0.7871,0.7861,0.7861,0.7871,0.7871,0.7871,0.787,0,0,0,0,0,0,0,0.7875,0.7874,0.7866,0.7871,0.7871,0.7874,0.7874,0.7868,0.7871,0.7874,0.7875,0.7875,0.7873,0.7871,0.7871,0.7861,0.7871,0.7871,0.787,0.787,0.7842,0.7842,0,0,0,0,0,0,0.7875,0.7874,0.7866,0.7866,0.7874,0.7873,0.7873,0.7871,0.7871,0.7871,0.7874,0.7875,0.7872,0.7871,0.7871,0.7857,0.7871,0.787,0.787,0.7843,0.7842,0.7842,0,0,0,0,0,0,0.7875,0.7874,0.7866,0.7871,0.787,0.7873,0.787,0.7871,0.7869,0.7871,0.7871,0.7872,0.7872,0.7871,0.7864,0.7857,0.787,0.7869,0.7843,0.7843,0.7842,0.7831,0,0,0,0,0,0,0.7875,0.7874,0.7869,0.787,0.787,0.786,0.787,0.787,0.7869,0.787,0.7869,0.787,0.7872,0.7864,0.7863,0.7857,0.7869,0.7844,0.7843,0.7842,0.7831,0.783,0.7828,0,0,0,0,0,0.7875,0.7866,0.7869,0.7868,0.7864,0.7859,0.7859,0.7862,0.7868,0.7864,0.7865,0.787,0.7859,0.7863,0.7862,0.7856,0.7844,0.7843,0.7842,0.7832,0.783,0.7828,0,0,0,0,0,0,0.7863,0.7866,0.787,0.786,0.7859,0.7861,0.7855,0.786,0.7857,0.7858,0.7863,0.7863,0.7854,0.7854,0.786,0.7845,0.7852,0.7851,0.7845,0.7843,0.7841,0.7841,0.7869,0,0,0,0,0,0.7859,0.7855,0.7858,0.7849,0.7849,0.7852,0.785,0.7853,0.7853,0.7852,0.7853,0.7852,0.7848,0.7846,0.7842,0.7832,0.7832,0.7827,0.7825,0.7824,0.7822,0.7818,0.7815,0.7839,0.7839,0.7839,0,0,0.7851,0.7852,0.7849,0.7846,0.7846,0.7842,0.7852,0.7846,0.7843,0.7851,0.7844,0.7845,0.7844,0.7835,0.7831,0.7835,0.7816,0.7823,0.7821,0.7821,0.7816,0.7814,0.7812,0.7838,0.7838,0.7838,0,0,0.7834,0.7834,0.7827,0.7827,0.7828,0.783,0.7829,0.783,0.7831,0.7824,0.783,0.7827,0.782,0.782,0.7819,0.7803,0.7808,0.7802,0.7793,0.7788,0.7786,0.7785,0.7779,0.7777,0.7801,0.7801,0.7801,0,0.7823,0.7817,0.7823,0.7818,0.7817,0.7825,0.7818,0.7818,0.7817,0.7816,0.782,0.7813,0.7813,0.7804,0.7801,0.78,0.7798,0.7802,0.7786,0.7785,0.7783,0.7778,0.7776,0.78,0.78,0.7801,0.7801,0,0.7805,0.7801,0.7795,0.7795,0.7793,0.7787,0.7792,0.779,0.7793,0.7796,0.7789,0.779,0.7787,0.7786,0.7789,0.7778,0.778,0.7785,0.7793,0.778,0.7775,0.7774,0.7799,0.78,0.78,0.78,0,0,0.7778,0.7782,0.778,0.7781,0.7782,0.7779,0.7774,0.7772,0.777,0.777,0.7765,0.7761,0.7766,0.7764,0.7768,0.7764,0.7752,0.777,0.777,0.7766,0.7741,0.7736,0.7734,0.7756,0.7755,0.7755,0.7741,0,0.7762,0.7753,0.7759,0.7749,0.7746,0.7754,0.775,0.775,0.7753,0.775,0.7753,0.7749,0.7756,0.7756,0.7752,0.7754,0.7747,0.7756,0.7751,0.7751,0.7751,0.7732,0.7727,0.7713,0.7739,0.7739,0.7738,0,0.7741,0.774,0.773,0.7734,0.7733,0.7729,0.7728,0.7726,0.7727,0.7729,0.7728,0.7733,0.7729,0.7737,0.7731,0.7736,0.7735,0.7736,0.7736,0.7735,0.7744,0.773,0.7709,0.7707,0.7736,0.7736,0.7736,0,0.7722,0.7719,0.7713,0.7713,0.7717,0.7714,0.7716,0.7717,0.7716,0.7716,0.7715,0.7714,0.7713,0.7713,0.7717,0.7723,0.7711,0.7719,0.7712,0.7712,0.7708,0.7708,0.7686,0.7708,0.7708,0.7708,0.7708,0,0.7703,0.7697,0.7705,0.7701,0.7695,0.7702,0.7695,0.7698,0.7699,0.7696,0.7704,0.7701,0.7707,0.7705,0.7709,0.7703,0.7703,0.7705,0.7706,0.7704,0.7703,0.7702,0.7703,0.7708,0.7708,0.7708,0.7708,0,0.7681,0.7686,0.768,0.7685,0.7686,0.7681,0.7685,0.7682,0.7686,0.7682,0.7681,0.7687,0.7685,0.769,0.7688,0.7691,0.7683,0.7686,0.7683,0.7683,0.7676,0.7677,0.7652,0.765,0.7674,0.7673,0.7673,0,0.7668,0.7663,0.7668,0.7667,0.7668,0.7666,0.7665,0.7672,0.7671,0.7673,0.767,0.7669,0.7668,0.7664,0.7668,0.7667,0.767,0.7661,0.7669,0.7668,0.7669,0.7669,0.7669,0.7659,0.7659,0.7659,0.7658,0,0.7644,0.7647,0.7646,0.7647,0.7646,0.7646,0.7647,0.7646,0.7654,0.7652,0.7651,0.765,0.7649,0.7648,0.7648,0.765,0.7655,0.7656,0.7655,0.7652,0.7651,0.7651,0.7678,0.7656,0.7657,0.7657,0.7657,0.7657,0.7626,0.7623,0.7626,0.7625,0.7626,0.7627,0.7625,0.7629,0.7628,0.7628,0.7632,0.763,0.7633,0.7634,0.7635,0.7633,0.7637,0.7634,0.7634,0.7633,0.7632,0.7652,0.7633,0.7633,0.7633,0.7633,0.7633,0,0.7602,0.7605,0.7604,0.7606,0.7605,0.7612,0.7614,0.7613,0.7611,0.7613,0.7612,0.7611,0.761,0.7614,0.7614,0.7612,0.7615,0.7612,0.7612,0.7612,0.7628,0.763,0.761,0.761,0.761,0.761,0.761,0.761,0.759,0.7585,0.7589,0.7586,0.7589,0.7587,0.7587,0.7588,0.759,0.7589,0.7588,0.7591,0.7595,0.7595,0.7595,0.7596,0.7596,0.7592,0.7594,0.7609,0.7611,0.7613,0.7614,0.7592,0.7592,0.7578,0.7578,0.7578]},{"header":{"parameterUnit":"m.s-1","parameterCategory":1,"la1":30.2991,"la2":30.254,"lo1":-89.0895,"lo2":-89.0444,"dy":0.0017,"dx":0.0017,"nx":28,"ny":28,"refTime":"2025-11-26T09:00:00:Z","depth":0,"parameterNumber":3,"parameterNumberName":"V-component_of_WINDS"},"data":[0,0,0,0,0,0,0,0,0,0,0,0,0,0,0,0,0,0,0,0,0,0,0,0,0,0,0,0,0,0,0,0,0,0,0,0,0,0,0,0,0,0,0,0,0,0,0,0,0,0,0,0,0,0,0,0,0,0,-5.9445,-5.9446,0,-5.9511,-5.9512,-5.9513,-5.9477,-5.9476,-5.9474,-5.9472,-5.9535,-5.9538,-5.9541,0,0,0,0,0,0,0,0,0,0,0,0,0,-5.9285,-5.9288,-5.9445,-5.9446,-5.9447,-5.9511,-5.9512,-5.9513,-5.9478,-5.9476,-5.9473,-5.9471,-5.9534,-5.9537,-5.9541,0,0,0,0,0,0,0,0,0,0,0,0,0,-5.9353,-5.9289,-5.9445,-5.9437,-5.9437,-5.9511,-5.9512,-5.9513,-5.9478,-5.9476,-5.9473,-5.947,-5.9532,-5.9537,-5.9542,-5.9626,0,0,-5.9557,-5.9559,0,0,0,0,0,0,0,0,-5.9349,-5.9359,-5.9438,-5.9438,-5.9438,-5.9484,-5.9478,-5.9551,-5.9479,-5.9462,-5.9472,-5.9469,-5.9519,-5.9525,-5.9543,-5.9629,-5.9631,-5.9558,-5.9561,-5.9563,-5.9564,0,0,0,0,0,0,0,-5.9344,-5.9356,-5.9471,-5.9439,-5.9439,-5.9429,-5.9436,-5.9492,-5.9505,-5.9464,-5.9461,-5.947,-5.9519,-5.9539,-5.9544,-5.9632,-5.9557,-5.9562,-5.9565,-5.9567,-5.9791,-5.9794,0,0,0,0,0,0,-5.9341,-5.9352,-5.9469,-5.9473,-5.9386,-5.9434,-5.9442,-5.9472,-5.9504,-5.9507,-5.9472,-5.9468,-5.9531,-5.9539,-5.9547,-5.9648,-5.9563,-5.9567,-5.957,-5.9788,-5.9791,-5.9795,0,0,0,0,0,0,-5.9337,-5.9352,-5.9466,-5.9412,-5.9426,-5.944,-5.9474,-5.9474,-5.9494,-5.9511,-5.9512,-5.949,-5.953,-5.954,-5.9607,-5.9649,-5.957,-5.9574,-5.9784,-5.9789,-5.9793,-5.985,0,0,0,0,0,0,-5.9333,-5.9351,-5.9383,-5.9413,-5.9429,-5.9527,-5.9476,-5.9477,-5.9503,-5.9498,-5.9528,-5.953,-5.9528,-5.96,-5.9612,-5.9655,-5.9578,-5.9781,-5.9786,-5.9792,-5.9844,-5.9856,-5.9866,0,0,0,0,0,-5.9327,-5.9395,-5.9385,-5.9399,-5.9471,-5.953,-5.9538,-5.9536,-5.9507,-5.9539,-5.955,-5.9529,-5.9643,-5.9607,-5.962,-5.9665,-5.9778,-5.9785,-5.9791,-5.984,-5.9854,-5.9865,0,0,0,0,0,0,-5.9367,-5.9399,-5.9388,-5.9468,-5.9497,-5.9524,-5.9564,-5.9551,-5.9587,-5.9581,-5.9576,-5.9583,-5.9653,-5.9666,-5.9625,-5.9749,-5.9706,-5.9715,-5.9738,-5.9751,-5.9762,-5.9757,-5.9582,0,0,0,0,0,-5.9386,-5.9433,-5.9457,-5.9525,-5.954,-5.955,-5.9576,-5.9572,-5.9601,-5.9612,-5.9628,-5.9655,-5.9697,-5.9725,-5.9764,-5.9846,-5.9852,-5.9884,-5.9894,-5.9903,-5.9911,-5.9956,-5.9971,-5.9817,-5.9817,-5.9816,0,0,-5.9424,-5.9447,-5.9476,-5.9534,-5.9556,-5.9603,-5.956,-5.9612,-5.9647,-5.9619,-5.9685,-5.9698,-5.9728,-5.9803,-5.9837,-5.9816,-5.9955,-5.9912,-5.9918,-5.9922,-5.9965,-5.9979,-5.9992,-5.9821,-5.982,-5.982,0,0,-5.9517,-5.954,-5.9599,-5.9623,-5.9658,-5.9664,-5.9679,-5.9708,-5.9716,-5.9782,-5.9763,-5.9804,-5.9876,-5.9899,-5.992,-6.0025,-6.0007,-6.0038,-6.0093,-6.0137,-6.0149,-6.016,-6.0198,-6.0211,-6.0046,-6.0046,-6.0046,0,-5.9559,-5.9632,-5.9631,-5.9686,-5.9711,-5.9691,-5.9751,-5.9774,-5.9818,-5.9836,-5.9813,-5.9904,-5.9923,-6.0004,-6.003,-6.0047,-6.0063,-6.0034,-6.0148,-6.0159,-6.0169,-6.0204,-6.0219,-6.005,-6.0049,-6.0049,-6.0049,0,-5.9682,-5.9733,-5.9777,-5.9824,-5.9855,-5.9911,-5.9918,-5.995,-5.9944,-5.9953,-6.002,-6.0043,-6.0087,-6.0106,-6.0099,-6.0187,-6.0172,-6.0149,-6.0105,-6.0187,-6.0221,-6.0234,-6.0055,-6.0053,-6.0052,-6.0052,0,0,-5.9801,-5.9849,-5.9865,-5.9887,-5.9925,-5.9963,-6.0019,-6.0065,-6.0092,-6.0124,-6.017,-6.0233,-6.0212,-6.0236,-6.0232,-6.0271,-6.0353,-6.0242,-6.0243,-6.0262,-6.0451,-6.0469,-6.0485,-6.0342,-6.0345,-6.0347,-6.0449,0,-5.9897,-5.9998,-6.0,-6.0091,-6.0138,-6.0121,-6.0169,-6.0197,-6.0207,-6.0248,-6.0258,-6.0303,-6.0271,-6.0286,-6.0324,-6.0335,-6.0391,-6.0328,-6.0384,-6.0386,-6.0377,-6.0502,-6.0521,-6.0616,-6.0462,-6.0464,-6.0465,0,-6.0023,-6.0062,-6.0159,-6.0192,-6.0212,-6.0256,-6.0298,-6.0338,-6.0369,-6.0373,-6.0402,-6.0393,-6.0449,-6.0405,-6.0482,-6.0439,-6.0463,-6.0472,-6.0476,-6.048,-6.0431,-6.051,-6.0646,-6.066,-6.0486,-6.0484,-6.0483,0,-6.01,-6.0177,-6.0245,-6.0264,-6.0304,-6.0336,-6.0353,-6.0383,-6.041,-6.0447,-6.0465,-6.0507,-6.053,-6.0563,-6.0565,-6.0533,-6.0643,-6.0599,-6.0648,-6.0648,-6.0672,-6.067,-6.0813,-6.0687,-6.0687,-6.0686,-6.0686,0,-6.0208,-6.0268,-6.0281,-6.0323,-6.039,-6.0391,-6.0457,-6.0472,-6.0498,-6.0542,-6.0529,-6.057,-6.0571,-6.0612,-6.0614,-6.0678,-6.0689,-6.0693,-6.0693,-6.0695,-6.0694,-6.0709,-6.0703,-6.069,-6.0689,-6.0689,-6.0688,0,-6.0305,-6.0317,-6.039,-6.0423,-6.0433,-6.0481,-6.0508,-6.0548,-6.0557,-6.0613,-6.0626,-6.0641,-6.0689,-6.0696,-6.0751,-6.0753,-6.083,-6.0823,-6.082,-6.0819,-6.0868,-6.0864,-6.1026,-6.1047,-6.0907,-6.0909,-6.091,0,-6.0373,-6.0419,-6.0458,-6.0488,-6.0508,-6.0555,-6.0584,-6.0588,-6.0618,-6.0659,-6.0694,-6.0742,-6.078,-6.0859,-6.0873,-6.0916,-6.091,-6.0964,-6.0916,-6.0917,-6.0911,-6.0908,-6.0913,-6.0973,-6.0974,-6.0976,-6.0977,0,-6.0492,-6.0496,-6.0539,-6.0586,-6.0622,-6.0658,-6.0692,-6.0716,-6.0724,-6.0759,-6.081,-6.084,-6.0899,-6.0947,-6.099,-6.1006,-6.0993,-6.0992,-6.1006,-6.1007,-6.1004,-6.1007,-6.0846,-6.0988,-6.0987,-6.0986,-6.0985,-6.0985,-6.0576,-6.0617,-6.0652,-6.0701,-6.0728,-6.0761,-6.08,-6.0816,-6.0859,-6.0909,-6.0908,-6.0964,-6.0995,-6.1052,-6.1072,-6.1115,-6.1097,-6.1117,-6.1122,-6.1127,-6.1132,-6.0998,-6.1123,-6.1123,-6.1122,-6.1122,-6.1122,0,-6.0695,-6.0717,-6.0763,-6.0812,-6.0851,-6.0838,-6.0875,-6.0908,-6.0959,-6.099,-6.1029,-6.1088,-6.1135,-6.1154,-6.12,-6.123,-6.1225,-6.1242,-6.124,-6.1244,-6.1145,-6.1129,-6.1246,-6.1246,-6.1246,-6.1246,-6.1246,-6.1246,-6.0761,-6.083,-6.0839,-6.0921,-6.0942,-6.0999,-6.1022,-6.1051,-6.1077,-6.1144,-6.1184,-6.1197,-6.1223,-6.1271,-6.1313,-6.1318,-6.1335,-6.1355,-6.1356,-6.1263,-6.1251,-6.1239,-6.1224,-6.1358,-6.1359,-6.1452,-6.1452,-6.1453]}]]